VK4CWL-13 Weather Reports


Display with metric or nautical units.
time (UTC)temp
F
wind
direction
speed
MPH
gust
MPH
rain 1hr
in
rain 24hr
in
rain mn
in
humidity
%
barometer
mb
20260509225917 63 135 11.0 11.0 0.00 0.00 0.00 64 1024.8
20260509225415 63 135 11.0 11.0 0.00 0.00 0.00 64 1024.7
20260509224913 63 135 9.0 12.0 0.00 0.00 0.00 64 1024.6
20260509224411 62 135 8.0 13.0 0.00 0.00 0.00 64 1024.5
20260509223908 62 135 8.0 10.0 0.00 0.00 0.00 64 1024.3
20260509223406 62 168 8.0 11.0 0.00 0.00 0.00 64 1024.5
20260509222903 61 135 8.0 11.0 0.00 0.00 0.00 64 1024.3
20260509222401 61 146 10.0 12.0 0.00 0.00 0.00 65 1024.3
20260509221859 60 135 6.0 11.0 0.00 0.00 0.00 64 1024.1
20260509220851 60 135 10.0 12.0 0.00 0.00 0.00 65 1023.9
20260509220349 60 135 7.0 11.0 0.00 0.00 0.00 65 1024.0
20260509215847 60 157 7.0 11.0 0.00 0.00 0.00 65 1024.1
20260509215345 59 135 9.0 12.0 0.00 0.00 0.00 65 1023.9
20260509214842 59 135 7.0 10.0 0.00 0.00 0.00 66 1024.1
20260509214340 59 146 8.0 8.0 0.00 0.00 0.00 66 1024.2
20260509213837 59 157 6.0 9.0 0.00 0.00 0.00 66 1024.2
20260509213335 58 157 7.0 8.0 0.00 0.00 0.00 67 1024.1
20260509212833 58 146 6.0 8.0 0.00 0.00 0.00 67 1024.1
20260509212331 58 180 6.0 9.0 0.00 0.00 0.00 68 1023.9
20260509211828 58 135 7.0 9.0 0.00 0.00 0.00 69 1023.8
20260509211326 57 146 6.0 8.0 0.00 0.00 0.00 69 1023.7
20260509210824 57 135 7.0 7.0 0.00 0.00 0.00 69 1023.6
20260509210322 57 135 5.0 7.0 0.00 0.00 0.00 70 1023.4
20260509205819 57 168 4.0 7.0 0.00 0.00 0.00 69 1023.6
20260509205317 57 180 4.0 6.0 0.00 0.00 0.00 69 1023.6
20260509204814 56 157 4.0 6.0 0.00 0.00 0.00 69 1023.5
20260509204312 56 157 4.0 6.0 0.00 0.00 0.00 68 1023.3
20260509203811 56 157 4.0 6.0 0.00 0.00 0.00 68 1023.1
20260509203307 56 135 5.0 5.0 0.00 0.00 0.00 68 1022.9
20260509202805 56 168 3.0 6.0 0.00 0.00 0.00 68 1023.0
20260509202306 56 180 5.0 5.0 0.00 0.00 0.00 67 1022.8
20260509201803 56 135 4.0 5.0 0.00 0.00 0.00 67 1022.8
20260509201259 56 157 4.0 4.0 0.00 0.00 0.00 67 1023.0
20260509200757 56 135 3.0 4.0 0.00 0.00 0.00 67 1022.8
20260509200254 56 180 3.0 3.0 0.00 0.00 0.00 67 1023.1
20260509195751 56 180 1.0 2.0 0.00 0.00 0.00 67 1023.1
20260509195251 56 191 2.0 3.0 0.00 0.00 0.00 67 1023.1
20260509194747 56 180 2.0 3.0 0.00 0.00 0.00 67 1022.7
20260509194245 56 135 3.0 4.0 0.00 0.00 0.00 67 1022.7
20260509193742 56 135 2.0 4.0 0.00 0.00 0.00 67 1022.9
20260509193240 56 168 4.0 5.0 0.00 0.00 0.00 67 1022.5
20260509192738 56 180 4.0 4.0 0.00 0.00 0.00 67 1022.8
20260509192237 56 191 4.0 5.0 0.00 0.00 0.00 67 1022.6
20260509191734 56 180 3.0 5.0 0.00 0.00 0.00 67 1022.5
20260509191231 55 180 4.0 5.0 0.00 0.00 0.00 68 1022.4
20260509190728 55 157 3.0 5.0 0.00 0.00 0.00 68 1022.3
20260509190226 55 180 3.0 4.0 0.00 0.00 0.00 68 1022.3
20260509185724 55 157 3.0 4.0 0.00 0.00 0.00 68 1022.2
20260509185222 55 180 2.0 3.0 0.00 0.00 0.00 68 1022.4
20260509184720 55 180 2.0 4.0 0.00 0.00 0.00 68 1022.4
20260509183715 55 135 5.0 7.0 0.00 0.00 0.00 69 1022.1
20260509183213 55 180 6.0 6.0 0.00 0.00 0.00 69 1022.1
20260509182711 55 157 4.0 6.0 0.00 0.00 0.00 69 1022.1
20260509182208 55 168 4.0 6.0 0.00 0.00 0.00 69 1021.8
20260509181705 55 180 4.0 6.0 0.00 0.00 0.00 68 1021.6
20260509181203 55 180 4.0 5.0 0.00 0.00 0.00 68 1021.7
20260509180701 55 146 6.0 6.0 0.00 0.00 0.00 68 1021.7
20260509180159 55 191 3.0 3.0 0.00 0.00 0.00 67 1021.9
20260509175657 55 135 2.0 2.0 0.00 0.00 0.00 67 1021.9
20260509175154 55 180 1.0 2.0 0.00 0.00 0.00 67 1021.9
20260509174652 54 180 1.0 2.0 0.00 0.00 0.00 67 1021.8
20260509174150 54 180 1.0 3.0 0.00 0.00 0.00 67 1021.8
20260509173648 54 180 1.0 2.0 0.00 0.00 0.00 67 1021.7
20260509173145 54 225 0.0 1.0 0.00 0.00 0.00 66 1021.8
20260509172642 54 225 0.0 2.0 0.00 0.00 0.00 67 1021.7
20260509172140 54 180 2.0 2.0 0.00 0.00 0.00 66 1021.8
20260509171638 54 168 1.0 2.0 0.00 0.00 0.00 65 1022.0
20260509171136 54 180 1.0 2.0 0.00 0.00 0.00 65 1022.0
20260509170634 54 157 1.0 3.0 0.00 0.00 0.00 65 1022.0
20260509170132 54 180 2.0 4.0 0.00 0.00 0.00 65 1022.0
20260509165629 54 180 3.0 4.0 0.00 0.00 0.00 65 1021.9
20260509165127 55 180 3.0 3.0 0.00 0.00 0.00 64 1022.1
20260509164625 55 180 2.0 2.0 0.00 0.00 0.00 64 1022.2
20260509164122 55 180 2.0 3.0 0.00 0.00 0.00 64 1022.1
20260509163620 55 168 1.0 2.0 0.00 0.00 0.00 63 1022.1
20260509163117 55 202 2.0 4.0 0.00 0.00 0.00 64 1022.0
20260509162615 55 180 3.0 3.0 0.00 0.00 0.00 63 1021.9
20260509162113 55 180 2.0 3.0 0.00 0.00 0.00 63 1021.9
20260509161611 55 180 3.0 4.0 0.00 0.00 0.00 63 1021.8
20260509161109 55 180 3.0 4.0 0.00 0.00 0.00 63 1021.7
20260509160606 55 180 3.0 4.0 0.00 0.00 0.00 63 1021.9
20260509160104 55 180 4.0 4.0 0.00 0.00 0.00 63 1021.9
20260509155602 55 180 2.0 2.0 0.00 0.00 0.00 63 1022.0
20260509155059 55 180 2.0 2.0 0.00 0.00 0.00 63 1021.9
20260509154557 55 157 1.0 3.0 0.00 0.00 0.00 63 1022.0
20260509154054 55 180 2.0 3.0 0.00 0.00 0.00 63 1022.1
20260509153552 55 168 3.0 3.0 0.00 0.00 0.00 62 1022.1
20260509153050 55 157 2.0 3.0 0.00 0.00 0.00 62 1021.9
20260509152548 55 157 2.0 3.0 0.00 0.00 0.00 61 1021.9
20260509152046 55 180 2.0 3.0 0.00 0.00 0.00 61 1022.3
20260509151544 55 135 2.0 2.0 0.00 0.00 0.00 61 1022.3
20260509151041 55 135 1.0 3.0 0.00 0.00 0.00 60 1022.3
20260509150036 56 135 3.0 5.0 0.00 0.00 0.00 58 1022.1
20260509145534 56 180 3.0 5.0 0.00 0.00 0.00 58 1022.0
20260509145032 56 180 3.0 4.0 0.00 0.00 0.00 58 1022.2
20260509144529 56 180 2.0 2.0 0.00 0.00 0.00 57 1022.4
20260509144027 57 135 1.0 1.0 0.00 0.00 0.00 56 1022.3
20260509143525 57 157 1.0 3.0 0.00 0.00 0.00 56 1022.4
20260509143023 57 168 3.0 4.0 0.00 0.00 0.00 56 1022.4
20260509142521 57 135 3.0 3.0 0.00 0.00 0.00 56 1022.3
20260509142018 57 101 2.0 2.0 0.00 0.00 0.00 55 1022.1
20260509141516 57 112 2.0 2.0 0.00 0.00 0.00 55 1022.1
20260509141014 57 135 1.0 2.0 0.00 0.00 0.00 54 1022.2
20260509140511 57 135 2.0 3.0 0.00 0.00 0.00 54 1022.1
20260509140009 58 157 1.0 2.0 0.00 0.00 0.00 53 1022.0
20260509135506 58 157 2.0 4.0 0.00 0.00 0.00 53 1022.0
20260509135004 58 180 3.0 5.0 0.00 0.00 0.00 53 1022.1
20260509134502 58 180 3.0 4.0 0.00 0.00 0.00 54 1022.3
20260509134000 58 135 4.0 4.0 0.00 0.00 0.00 54 1022.1
20260509133458 58 101 4.0 4.0 0.00 0.00 0.00 54 1022.2
20260509132955 58 112 4.0 6.0 0.00 0.00 0.00 54 1022.2
20260509132453 58 112 3.0 6.0 0.00 0.00 0.00 54 1022.2
20260509131951 57 157 4.0 5.0 0.00 0.00 0.00 53 1022.0
20260509131448 57 112 4.0 4.0 0.00 0.00 0.00 53 1022.0
20260509130444 57 146 4.0 4.0 0.00 0.00 0.00 52 1022.0
20260509125941 58 135 4.0 5.0 0.00 0.00 0.00 52 1022.0
20260509125441 58 135 4.0 5.0 0.00 0.00 0.00 52 1021.9
20260509124937 58 157 4.0 4.0 0.00 0.00 0.00 51 1021.6
20260509124435 59 146 4.0 4.0 0.00 0.00 0.00 51 1021.5
20260509123933 59 180 5.0 5.0 0.00 0.00 0.00 51 1021.5
20260509123431 59 168 4.0 5.0 0.00 0.00 0.00 50 1021.5
20260509122931 59 157 4.0 4.0 0.00 0.00 0.00 50 1021.4
20260509122425 60 191 3.0 4.0 0.00 0.00 0.00 50 1021.4
20260509121923 60 180 3.0 4.0 0.00 0.00 0.00 49 1021.5
20260509121421 60 135 4.0 4.0 0.00 0.00 0.00 49 1021.4
20260509120918 60 168 4.0 4.0 0.00 0.00 0.00 48 1021.5
20260509120416 60 157 3.0 4.0 0.00 0.00 0.00 48 1021.3
20260509115914 61 180 3.0 3.0 0.00 0.00 0.00 48 1021.4
20260509115412 61 146 3.0 3.0 0.00 0.00 0.00 48 1021.4
20260509114910 61 135 3.0 4.0 0.00 0.00 0.00 48 1021.4
20260509114407 61 135 3.0 4.0 0.00 0.00 0.00 48 1021.3
20260509113905 61 135 3.0 4.0 0.00 0.00 0.00 48 1021.4
20260509113402 61 135 3.0 4.0 0.00 0.00 0.00 48 1021.4
20260509112900 61 135 3.0 3.0 0.00 0.00 0.00 48 1021.3
20260509112358 61 146 3.0 4.0 0.00 0.00 0.00 48 1021.4
20260509111855 61 135 3.0 4.0 0.00 0.00 0.00 47 1021.3
20260509111353 61 135 3.0 4.0 0.00 0.00 0.00 47 1021.3
20260509110851 61 135 3.0 4.0 0.00 0.00 0.00 47 1021.3
20260509110349 61 123 3.0 4.0 0.00 0.00 0.00 47 1021.4
20260509105847 61 135 3.0 4.0 0.00 0.00 0.00 47 1021.4
20260509105345 61 135 3.0 3.0 0.00 0.00 0.00 47 1021.4
20260509104842 61 135 3.0 3.0 0.00 0.00 0.00 47 1021.5
20260509104339 61 157 2.0 3.0 0.00 0.00 0.00 47 1021.4
20260509103837 62 135 3.0 3.0 0.00 0.00 0.00 47 1021.4
20260509103335 62 157 3.0 3.0 0.00 0.00 0.00 46 1021.5
20260509102833 62 135 3.0 3.0 0.00 0.00 0.00 46 1021.4
20260509102330 62 135 2.0 3.0 0.00 0.00 0.00 46 1021.4
20260509101828 62 135 3.0 3.0 0.00 0.00 0.00 46 1021.4
20260509101326 62 157 2.0 3.0 0.00 0.00 0.00 46 1021.3
20260509100824 62 135 3.0 3.0 0.00 0.00 0.00 46 1021.2
20260509100321 62 112 3.0 4.0 0.00 0.00 0.00 46 1021.3
20260509095819 62 135 3.0 4.0 0.00 0.00 0.00 45 1021.3
20260509095316 62 135 4.0 4.0 0.00 0.00 0.00 45 1021.3
20260509094814 62 135 3.0 4.0 0.00 0.00 0.00 45 1021.2
20260509094312 62 168 3.0 4.0 0.00 0.00 0.00 44 1021.1
20260509093812 62 135 3.0 3.0 0.00 0.00 0.00 44 1021.1
20260509093307 62 135 3.0 3.0 0.00 0.00 0.00 44 1021.0
20260509092805 63 135 1.0 2.0 0.00 0.00 0.00 43 1020.8
20260509092305 63 135 2.0 2.0 0.00 0.00 0.00 42 1020.7
20260509091801 64 135 2.0 3.0 0.00 0.00 0.00 42 1020.6
20260509091259 64 157 3.0 3.0 0.00 0.00 0.00 42 1020.5
20260509090756 65 180 3.0 3.0 0.00 0.00 0.00 41 1020.5
20260509090253 65 157 3.0 3.0 0.00 0.00 0.00 41 1020.4
20260509085751 65 168 3.0 3.0 0.00 0.00 0.00 41 1020.3
20260509085249 65 168 2.0 3.0 0.00 0.00 0.00 40 1020.2
20260509084747 66 180 2.0 3.0 0.00 0.00 0.00 40 1020.1
20260509084245 66 168 2.0 3.0 0.00 0.00 0.00 40 1020.0
20260509083742 66 180 3.0 3.0 0.00 0.00 0.00 39 1019.9
20260509083240 67 191 3.0 3.0 0.00 0.00 0.00 39 1019.9
20260509082738 67 180 3.0 3.0 0.00 0.00 0.00 39 1019.8
20260509082236 67 180 2.0 3.0 0.00 0.00 0.00 38 1019.6
20260509081737 68 180 2.0 3.0 0.00 0.00 0.00 38 1019.6
20260509081232 69 180 2.0 3.0 0.00 0.00 0.00 37 1019.5
20260509080728 69 180 2.0 3.0 0.00 0.00 0.00 37 1019.5
20260509080226 69 180 2.0 4.0 0.00 0.00 0.00 36 1019.4
20260509075724 70 180 3.0 4.0 0.00 0.00 0.00 36 1019.3
20260509075222 70 180 3.0 3.0 0.00 0.00 0.00 35 1019.2
20260509074720 71 180 3.0 3.0 0.00 0.00 0.00 34 1019.2
20260509074220 71 180 3.0 3.0 0.00 0.00 0.00 34 1019.1
20260509073718 72 157 2.0 3.0 0.00 0.00 0.00 33 1019.1
20260509073214 72 168 3.0 3.0 0.00 0.00 0.00 33 1019.0
20260509072712 73 180 3.0 4.0 0.00 0.00 0.00 32 1018.9
20260509072209 73 135 3.0 6.0 0.00 0.00 0.00 32 1018.8
20260509071707 74 112 6.0 6.0 0.00 0.00 0.00 31 1018.7
20260509071204 74 112 6.0 8.0 0.00 0.00 0.00 31 1018.6
20260509070704 74 135 5.0 9.0 0.00 0.00 0.00 30 1018.5
20260509070200 75 135 6.0 6.0 0.00 0.00 0.00 30 1018.4
20260509065659 75 90 6.0 8.0 0.00 0.00 0.00 30 1018.4
20260509065156 75 90 7.0 9.0 0.00 0.00 0.00 29 1018.4
20260509064654 76 90 8.0 10.0 0.00 0.00 0.00 29 1018.5
20260509064152 76 135 7.0 10.0 0.00 0.00 0.00 29 1018.4
20260509063651 76 135 6.0 9.0 0.00 0.00 0.00 29 1018.3
20260509063147 76 135 6.0 9.0 0.00 0.00 0.00 28 1018.3
20260509062644 76 90 8.0 9.0 0.00 0.00 0.00 28 1018.2
20260509062142 76 135 6.0 10.0 0.00 0.00 0.00 28 1018.2
20260509061639 77 135 7.0 10.0 0.00 0.00 0.00 28 1018.2
20260509061138 77 135 7.0 12.0 0.00 0.00 0.00 28 1018.1
20260509060635 77 135 10.0 12.0 0.00 0.00 0.00 28 1018.0
20260509060134 77 135 5.0 10.0 0.00 0.00 0.00 29 1018.1
20260509055632 77 135 12.0 13.0 0.00 0.00 0.00 29 1018.0
20260509055130 77 135 8.0 11.0 0.00 0.00 0.00 28 1017.9
20260509054626 77 112 12.0 13.0 0.00 0.00 0.00 28 1017.9
20260509054123 77 180 6.0 10.0 0.00 0.00 0.00 29 1017.9
20260509053622 77 112 5.0 11.0 0.00 0.00 0.00 29 1017.8
20260509053119 77 146 10.0 10.0 0.00 0.00 0.00 29 1017.8
20260509052620 77 90 7.0 10.0 0.00 0.00 0.00 28 1017.8
20260509052114 77 90 7.0 11.0 0.00 0.00 0.00 29 1017.9
20260509051614 77 135 7.0 12.0 0.00 0.00 0.00 29 1017.8
20260509051111 77 112 5.0 8.0 0.00 0.00 0.00 29 1017.8
20260509050609 77 135 5.0 13.0 0.00 0.00 0.00 29 1017.8
20260509050106 77 112 11.0 11.0 0.00 0.00 0.00 30 1017.7
20260509045604 77 168 6.0 8.0 0.00 0.00 0.00 30 1017.8
20260509045100 77 112 9.0 11.0 0.00 0.00 0.00 29 1017.8
20260509044600 77 135 12.0 12.0 0.00 0.00 0.00 30 1017.7
20260509044437 77 67 3.0 9.0 0.00 0.00 0.00 30 1017.7
20260509043935 77 90 8.0 8.0 0.00 0.00 0.00 30 1017.7
20260509043433 76 146 10.0 11.0 0.00 0.00 0.00 30 1017.8
20260509042426 76 67 7.0 9.0 0.00 0.00 0.00 30 1017.9
20260509041925 76 90 7.0 11.0 0.00 0.00 0.00 30 1018.0
20260509041421 76 135 10.0 11.0 0.00 0.00 0.00 30 1018.0
20260509040922 76 123 7.0 11.0 0.00 0.00 0.00 30 1018.1
20260509040419 76 90 4.0 10.0 0.00 0.00 0.00 30 1018.2
20260509035917 76 123 6.0 15.0 0.00 0.00 0.00 30 1018.3
20260509035723 76 135 15.0 15.0 0.00 0.00 0.00 31 1018.4
20260509035332 76 180 5.0 9.0 0.00 0.00 0.00 32 1018.5
20260509034829 75 90 7.0 12.0 0.00 0.00 0.00 31 1018.4
20260509034326 75 135 4.0 12.0 0.00 0.00 0.00 32 1018.5
20260509034015 75 135 12.0 12.0 0.00 0.00 0.00 33 1018.5
20260509033832 75 90 3.0 11.0 0.00 0.00 0.00 33 1018.5
20260509033330 75 180 8.0 13.0 0.00 0.00 0.00 33 1018.6
20260509032830 74 157 6.0 11.0 0.00 0.00 0.00 34 1018.7
20260509032326 74 157 9.0 10.0 0.00 0.00 0.00 34 1018.8
20260509031822 74 135 10.0 13.0 0.00 0.00 0.00 33 1018.9
20260509030817 73 135 11.0 11.0 0.00 0.00 0.00 34 1019.1
20260509030312 73 135 9.0 9.0 0.00 0.00 0.00 33 1019.1
20260509025810 73 135 12.0 12.0 0.00 0.00 0.00 34 1019.2
20260509025459 73 112 3.0 12.0 0.00 0.00 0.00 34 1019.3
20260509025205 73 135 11.0 11.0 0.00 0.00 0.00 34 1019.4
20260509025023 73 135 3.0 10.0 0.00 0.00 0.00 34 1019.4
20260509024521 73 112 4.0 12.0 0.00 0.00 0.00 33 1019.5
20260509024019 73 180 5.0 15.0 0.00 0.00 0.00 34 1019.6
20260509023609 73 135 14.0 14.0 0.00 0.00 0.00 34 1019.6
20260509023414 72 135 6.0 12.0 0.00 0.00 0.00 35 1019.7
20260509022411 72 112 9.0 13.0 0.00 0.00 0.00 35 1020.0
20260509021907 72 135 12.0 13.0 0.00 0.00 0.00 35 1020.0
20260509021408 72 146 10.0 13.0 0.00 0.00 0.00 35 1020.1
20260509020904 71 135 12.0 12.0 0.00 0.00 0.00 36 1020.2
20260509020018 71 135 10.0 10.0 0.00 0.00 0.00 36 1020.4
20260509015515 71 90 9.0 12.0 0.00 0.00 0.00 36 1020.4
20260509015013 71 135 10.0 11.0 0.00 0.00 0.00 37 1020.4
20260509014511 70 135 12.0 12.0 0.00 0.00 0.00 37 1020.6
20260509014010 70 191 7.0 13.0 0.00 0.00 0.00 38 1020.7
20260509013506 70 135 11.0 11.0 0.00 0.00 0.00 37 1020.8
20260509013004 69 135 9.0 13.0 0.00 0.00 0.00 38 1020.9
20260509012505 69 112 9.0 11.0 0.00 0.00 0.00 38 1021.0
20260509012003 69 135 6.0 16.0 0.00 0.00 0.00 38 1021.0
20260509011808 69 135 14.0 16.0 0.00 0.00 0.00 38 1021.2
20260509011305 69 157 13.0 13.0 0.00 0.00 0.00 39 1021.2
20260509010802 69 135 10.0 16.0 0.00 0.00 0.00 38 1021.4
20260509010302 69 157 10.0 14.0 0.00 0.00 0.00 39 1021.4
20260509005801 68 146 11.0 16.0 0.00 0.00 0.00 39 1021.6
20260509005256 68 135 10.0 17.0 0.00 0.00 0.00 39 1021.6
20260509004754 68 101 13.0 14.0 0.00 0.00 0.00 39 1021.7
20260509004253 67 135 14.0 15.0 0.00 0.00 0.00 39 1021.7
20260509003752 68 135 13.0 16.0 0.00 0.00 0.00 40 1021.9
20260509003247 67 157 11.0 17.0 0.00 0.00 0.00 40 1021.9
20260509002745 67 135 11.0 18.0 0.00 0.00 0.00 40 1022.2
20260509002255 67 135 12.0 21.0 0.00 0.00 0.00 40 1021.9
20260509002000 67 135 20.0 21.0 0.00 0.00 0.00 41 1022.1
20260509001459 67 90 13.0 17.0 0.00 0.00 0.00 41 1022.0
20260509000955 66 135 11.0 20.0 0.00 0.00 0.00 41 1022.1
20260509000803 66 135 20.0 20.0 0.00 0.00 0.00 41 1022.1
20260509000351 66 135 11.0 17.0 0.00 0.00 0.00 41 1022.1
20260508235347 65 135 14.0 19.0 0.00 0.00 0.00 43 1022.4
20260508234846 64 135 15.0 20.0 0.00 0.00 0.00 43 1022.5
20260508234408 64 135 18.0 18.0 0.00 0.00 0.00 43 1022.4
20260508233840 64 135 13.0 20.0 0.00 0.00 0.00 44 1022.4
20260508233337 63 146 18.0 19.0 0.00 0.00 0.00 44 1022.5
20260508232835 63 135 15.0 22.0 0.00 0.00 0.00 44 1022.4
20260508232333 63 135 15.0 18.0 0.00 0.00 0.00 44 1022.4
20260508231830 63 112 14.0 19.0 0.00 0.00 0.00 44 1022.4
20260508231328 62 146 16.0 17.0 0.00 0.00 0.00 45 1022.4
20260508230826 62 123 12.0 18.0 0.00 0.00 0.00 45 1022.4
20260508230324 62 135 15.0 19.0 0.00 0.00 0.00 45 1022.4